[[{"header":{"parameterUnit":"m.s-1","parameterCategory":2,"la1":30.2992,"la2":30.254,"lo1":-89.0895,"lo2":-89.0443,"dy":0.0025,"dx":0.0025,"nx":19,"ny":19,"refTime":"2026-04-05T21:00:00:Z","depth":"0","parameterNumber":2,"parameterNumberName":"U-component_of_CURRENTS"},"data":[0,0,0,0.1219,0.1219,0.12,0.12,0.1189,0.1189,0,0,0,0,0,0,0,0,0,0,0,0.1225,0.1225,0.1219,0.1219,0.12,0.12,0.1189,0.1189,0,0,0,0,0,0,0,0,0,0,0,0.1225,0.1225,0.1225,0.1219,0.12,0.12,0.1189,0.1199,0,0,0,0,0,0,0,0,0,0,0.1215,0.1221,0.1225,0.1225,0.1219,0.12,0.12,0.1199,0.1198,0.1204,0,0.1204,0,0.12,0.1189,0.1189,0,0,0,0.1213,0.1221,0.1218,0.1225,0.1218,0.12,0.1207,0.1198,0.1197,0.1203,0.1204,0.1204,0.12,0.1189,0.1189,0.1217,0.1217,0,0,0.1214,0.122,0.1218,0.1217,0.1219,0.1207,0.1206,0.1197,0.1198,0.1204,0.1203,0.12,0.1189,0.1189,0.1216,0.1217,0,0,0,0.1221,0.122,0.1216,0.1218,0.1215,0.1207,0.1205,0.1199,0.1198,0.1203,0.1199,0.1189,0.119,0.1216,0.1216,0.124,0,0,0,0.1221,0.1225,0.1217,0.122,0.1215,0.1205,0.1207,0.1198,0.1197,0.12,0.1189,0.119,0.1216,0.1216,0.1239,0.1242,0,0,0,0.1225,0.1225,0.1225,0.122,0.1215,0.1205,0.1203,0.1198,0.1195,0.1189,0.119,0.1215,0.1216,0.1237,0.1241,0.1261,0,0,0,0.1229,0.1228,0.1225,0.1225,0.1215,0.1213,0.1203,0.1197,0.1193,0.1189,0.1216,0.1216,0.1237,0.1239,0.126,0.123,0.1233,0,0,0.1229,0.1228,0.1228,0.1225,0.1224,0.1215,0.1224,0.1213,0.1207,0.1218,0.1218,0.1239,0.124,0.1261,0.1268,0.127,0,0,0,0.1228,0.1227,0.1227,0.1226,0.1226,0.1233,0.1225,0.123,0.1237,0.1209,0.1246,0.1246,0.1258,0.1238,0.124,0.1105,0.1219,0.1219,0.1219,0.1229,0.1229,0.1227,0.1229,0.1236,0.1245,0.1256,0.1264,0.1256,0.1268,0.1271,0.1308,0.1287,0.1288,0.115,0.128,0.128,0.128,0.128,0.1224,0.1217,0.1228,0.1225,0.1241,0.1253,0.1286,0.1291,0.1318,0.1302,0.1313,0.127,0.1291,0.1144,0.1282,0.1282,0.1282,0.1281,0.1281,0.1215,0.1209,0.1212,0.1213,0.1228,0.1252,0.1283,0.1311,0.1333,0.1348,0.1325,0.1324,0.1189,0.1355,0.1355,0.1355,0.1355,0.1355,0.1355,0.1199,0.12,0.1194,0.1197,0.1201,0.1227,0.1277,0.1309,0.1342,0.1346,0.1345,0.1182,0.1331,0.1322,0.1357,0.1357,0.1357,0.1356,0.1356,0.1173,0.1177,0.1164,0.1164,0.1168,0.1154,0.1231,0.1281,0.133,0.1341,0.1176,0.1347,0.1335,0.1333,0.1324,0.1358,0.1358,0.1358,0.1358,0.1154,0.1156,0.113,0.1117,0.1118,0.1119,0.1101,0.1134,0.1136,0.1089,0.1101,0.1053,0.1059,0.1028,0.1033,0.1017,0.0972,0.0971,0.0971,0.1136,0.1132,0.1099,0.1081,0.1078,0.1059,0.097,0.0892,0.091,0.0941,0.0919,0.0935,0.0851,0.0872,0.0813,0.0831,0.0801,0,0]},{"header":{"parameterUnit":"m.s-1","parameterCategory":2,"la1":30.2992,"la2":30.254,"lo1":-89.0895,"lo2":-89.0443,"dy":0.0025,"dx":0.0025,"nx":19,"ny":19,"refTime":"2026-04-05T21:00:00:Z","depth":"0","parameterNumber":3,"parameterNumberName":"V-component_of_CURRENTS"},"data":[0,0,0,-0.0201,-0.0202,-0.022,-0.022,-0.0218,-0.0218,0,0,0,0,0,0,0,0,0,0,0,-0.0192,-0.0192,-0.0201,-0.0202,-0.022,-0.022,-0.0218,-0.0218,0,0,0,0,0,0,0,0,0,0,0,-0.0192,-0.0192,-0.0192,-0.0202,-0.022,-0.022,-0.0218,-0.0211,0,0,0,0,0,0,0,0,0,0,-0.0197,-0.019,-0.0192,-0.0192,-0.0202,-0.022,-0.022,-0.0211,-0.0211,-0.0201,0,-0.0201,0,-0.0209,-0.0217,-0.0217,0,0,0,-0.0204,-0.0189,-0.0195,-0.0192,-0.0202,-0.022,-0.0212,-0.0211,-0.0212,-0.0202,-0.0201,-0.0202,-0.0209,-0.0217,-0.0217,-0.0181,-0.0181,0,0,-0.0203,-0.0195,-0.0195,-0.0196,-0.0202,-0.0212,-0.0213,-0.0212,-0.0209,-0.0201,-0.0202,-0.0209,-0.0217,-0.0216,-0.0181,-0.0181,0,0,0,-0.0198,-0.0194,-0.0201,-0.0195,-0.0201,-0.0212,-0.0214,-0.0209,-0.0212,-0.0202,-0.0209,-0.0216,-0.0216,-0.0182,-0.0181,-0.0146,0,0,0,-0.0198,-0.0191,-0.02,-0.0195,-0.0201,-0.0208,-0.0211,-0.0212,-0.0212,-0.0209,-0.0216,-0.0216,-0.0182,-0.0182,-0.0148,-0.0122,0,0,0,-0.0192,-0.0191,-0.0192,-0.0195,-0.0202,-0.0209,-0.0211,-0.0212,-0.0216,-0.0217,-0.0216,-0.0182,-0.0182,-0.0149,-0.0125,-0.0099,0,0,0,-0.0185,-0.0177,-0.0192,-0.0182,-0.0202,-0.0194,-0.0212,-0.0209,-0.0208,-0.0216,-0.0182,-0.0181,-0.015,-0.0127,-0.01,-0.0071,-0.006,0,0,-0.017,-0.0174,-0.0168,-0.0182,-0.0166,-0.0191,-0.0167,-0.0177,-0.0193,-0.0182,-0.0181,-0.0147,-0.0125,-0.0099,-0.0032,-0.0023,0,0,0,-0.016,-0.0154,-0.0152,-0.0147,-0.0149,-0.0137,-0.0153,-0.0155,-0.0154,-0.019,-0.0144,-0.013,-0.0115,-0.0101,-0.0093,-0.0174,-0.0178,-0.0178,-0.0178,-0.0123,-0.0127,-0.0107,-0.0107,-0.01,-0.0098,-0.009,-0.0094,-0.0119,-0.0114,-0.01,-0.0051,-0.0035,-0.0029,-0.0113,-0.0102,-0.0102,-0.0102,-0.0102,-0.0088,-0.0073,-0.0071,-0.0056,-0.0046,-0.0026,-0.0023,-0.0037,-0.0025,-0.0059,-0.0046,-0.0062,-0.0018,-0.0111,-0.01,-0.01,-0.0101,-0.0101,-0.0101,-0.0058,-0.005,-0.0044,-0.0018,0.0014,0.0018,0.0063,0.0044,0.0016,0.0028,0.0034,0.0034,-0.0049,0.0028,0.0028,0.0029,0.0029,0.0029,0.0029,-0.0029,-0.002,0.0001,0.0022,0.0048,0.0086,0.0106,0.0121,0.0112,0.0086,0.0086,-0.0038,-0.0011,-0.0018,0.0033,0.0032,0.0032,0.0031,0.0031,0.0006,0.0006,0.0042,0.0066,0.0121,0.017,0.0192,0.0222,0.0219,0.0223,0.0056,0.0116,0.0109,0.0103,0.0098,0.0176,0.0176,0.0176,0.0176,0.003,0.0031,0.0078,0.012,0.0178,0.0211,0.0268,0.0271,0.0185,0.0114,0.0068,0.0027,0.0025,0.0009,0.0005,-0.0004,0.0047,0.0047,0.0046,0.0054,0.0067,0.01,0.0132,0.0198,0.0254,0.0278,0.0223,0.0093,0.003,-0.005,-0.0044,-0.012,-0.0117,-0.0154,-0.0154,-0.0172,0,0]}],[{"header":{"parameterUnit":"m.s-1","parameterCategory":2,"la1":30.2992,"la2":30.254,"lo1":-89.0895,"lo2":-89.0443,"dy":0.0025,"dx":0.0025,"nx":19,"ny":19,"refTime":"2026-04-05T21:00:00:Z","depth":"2","parameterNumber":2,"parameterNumberName":"U-component_of_CURRENTS"},"data":[0,0,0,0.1266,0.1266,0.1249,0.1249,0.1242,0.1242,0,0,0,0,0,0,0,0,0,0,0,0.1272,0.1272,0.1266,0.1266,0.1249,0.1249,0.1242,0.1242,0,0,0,0,0,0,0,0,0,0,0,0.1272,0.1272,0.1272,0.1266,0.1249,0.1249,0.1242,0.125,0,0,0,0,0,0,0,0,0,0,0.1264,0.1269,0.1272,0.1272,0.1266,0.1249,0.1249,0.125,0.1249,0.1256,0,0.1256,0,0.1252,0.1243,0.1243,0,0,0,0.1261,0.1269,0.1266,0.1272,0.1266,0.1249,0.1255,0.125,0.1249,0.1255,0.1256,0.1256,0.1252,0.1243,0.1243,0.1271,0.1271,0,0,0.1262,0.1267,0.1267,0.1266,0.1266,0.1256,0.1255,0.1249,0.125,0.1256,0.1255,0.1252,0.1243,0.1243,0.1271,0.1271,0,0,0,0.1268,0.1268,0.1264,0.1266,0.1264,0.1256,0.1254,0.125,0.1249,0.1255,0.1252,0.1243,0.1243,0.127,0.1271,0.1293,0,0,0,0.1268,0.1272,0.1265,0.1267,0.1264,0.1255,0.1256,0.125,0.1249,0.1252,0.1243,0.1243,0.127,0.1271,0.1292,0.1295,0,0,0,0.1272,0.1272,0.1272,0.1267,0.1263,0.1255,0.1253,0.1249,0.1247,0.1243,0.1243,0.127,0.1271,0.1291,0.1293,0.1314,0,0,0,0.1275,0.1274,0.1272,0.1271,0.1263,0.1262,0.1253,0.1249,0.1246,0.1243,0.127,0.1271,0.129,0.1292,0.1312,0.1277,0.128,0,0,0.1274,0.1274,0.1274,0.1272,0.1272,0.1264,0.1274,0.1264,0.126,0.1271,0.1272,0.1292,0.1293,0.1313,0.1314,0.1315,0,0,0,0.1274,0.1273,0.1273,0.1273,0.1274,0.1282,0.1276,0.1281,0.129,0.1262,0.1299,0.1299,0.1311,0.1288,0.1289,0.1274,0.1274,0.1274,0.1274,0.1273,0.1274,0.1273,0.1276,0.1284,0.1295,0.1306,0.1315,0.1308,0.132,0.1323,0.1359,0.1335,0.1335,0.1332,0.1332,0.1332,0.1332,0.1332,0.1268,0.1261,0.1274,0.1272,0.1289,0.1302,0.1335,0.1341,0.1368,0.1353,0.1364,0.1318,0.1338,0.1334,0.1334,0.1333,0.1333,0.1333,0.1333,0.1259,0.1253,0.1256,0.1259,0.1275,0.1301,0.1331,0.1359,0.1382,0.1398,0.1371,0.137,0.1368,0.1404,0.1404,0.1404,0.1404,0.1404,0.1404,0.1241,0.1243,0.1238,0.1243,0.1247,0.1274,0.1325,0.1356,0.1386,0.139,0.1389,0.1383,0.1381,0.1372,0.1406,0.1406,0.1406,0.1406,0.1405,0.1215,0.1219,0.1207,0.1207,0.1214,0.1202,0.1277,0.1323,0.1371,0.138,0.1388,0.1388,0.1376,0.1375,0.1366,0.1396,0.1396,0.1396,0.1396,0.1195,0.1197,0.1173,0.1161,0.1164,0.1167,0.1149,0.1164,0.1244,0.1257,0.1263,0.1228,0.1232,0.121,0.1212,0.1199,0.1186,0.1186,0.1185,0.1177,0.1173,0.1142,0.1126,0.1124,0.1108,0.1022,0.0932,0.1015,0.1174,0.119,0.1389,0.1354,0.1354,0.1332,0.1331,0.1314,0,0]},{"header":{"parameterUnit":"m.s-1","parameterCategory":2,"la1":30.2992,"la2":30.254,"lo1":-89.0895,"lo2":-89.0443,"dy":0.0025,"dx":0.0025,"nx":19,"ny":19,"refTime":"2026-04-05T21:00:00:Z","depth":"2","parameterNumber":3,"parameterNumberName":"V-component_of_CURRENTS"},"data":[0,0,0,-0.0102,-0.0102,-0.0125,-0.0125,-0.0123,-0.0123,0,0,0,0,0,0,0,0,0,0,0,-0.0092,-0.0092,-0.0102,-0.0102,-0.0125,-0.0125,-0.0123,-0.0123,0,0,0,0,0,0,0,0,0,0,0,-0.0092,-0.0092,-0.0092,-0.0102,-0.0125,-0.0125,-0.0123,-0.0114,0,0,0,0,0,0,0,0,0,0,-0.0096,-0.0091,-0.0092,-0.0092,-0.0102,-0.0125,-0.0125,-0.0114,-0.0115,-0.0104,0,-0.0105,0,-0.0113,-0.0122,-0.0122,0,0,0,-0.0104,-0.009,-0.0096,-0.0092,-0.0103,-0.0125,-0.0115,-0.0115,-0.0115,-0.0104,-0.0105,-0.0106,-0.0113,-0.0122,-0.0122,-0.0087,-0.0087,0,0,-0.0103,-0.0096,-0.0096,-0.0097,-0.0105,-0.0114,-0.0116,-0.0116,-0.0114,-0.0105,-0.0106,-0.0113,-0.0122,-0.0122,-0.0088,-0.0087,0,0,0,-0.0098,-0.0095,-0.0102,-0.0096,-0.0103,-0.0115,-0.0117,-0.0114,-0.0116,-0.0106,-0.0113,-0.0122,-0.0122,-0.0088,-0.0088,-0.0056,0,0,0,-0.0097,-0.0092,-0.0101,-0.0097,-0.0103,-0.0113,-0.0115,-0.0116,-0.0117,-0.0113,-0.0122,-0.0121,-0.0088,-0.0088,-0.0058,-0.0033,0,0,0,-0.0091,-0.0091,-0.0093,-0.0097,-0.0106,-0.0113,-0.0116,-0.0117,-0.0121,-0.0122,-0.0121,-0.0088,-0.0088,-0.0059,-0.0036,-0.0011,0,0,0,-0.0085,-0.0079,-0.0093,-0.0086,-0.0106,-0.0098,-0.0116,-0.0115,-0.0114,-0.0122,-0.0088,-0.0088,-0.0059,-0.0038,-0.0012,0.0018,0.0028,0,0,-0.0072,-0.0077,-0.0072,-0.0085,-0.0071,-0.0095,-0.0072,-0.0084,-0.01,-0.0087,-0.0087,-0.0057,-0.0036,-0.0011,0.0054,0.0063,0,0,0,-0.0064,-0.0059,-0.0057,-0.0053,-0.0055,-0.0044,-0.0061,-0.0063,-0.0063,-0.0097,-0.0053,-0.0041,-0.0026,-0.0011,-0.0004,-0.0085,-0.0085,-0.0085,-0.0085,-0.0033,-0.0035,-0.0018,-0.0016,-0.001,-0.0008,-0.0,-0.0005,-0.003,-0.0026,-0.0012,0.0033,0.0049,0.0055,-0.0015,-0.0015,-0.0015,-0.0015,-0.0015,-0.0002,0.0012,0.0015,0.0029,0.004,0.0058,0.0063,0.0048,0.0059,0.0026,0.0038,0.0024,0.0065,-0.0012,-0.0013,-0.0013,-0.0013,-0.0014,-0.0014,0.0023,0.0032,0.0037,0.0062,0.0093,0.0098,0.0141,0.0123,0.0096,0.0107,0.0114,0.0114,0.0056,0.0106,0.0106,0.0107,0.0107,0.0107,0.0107,0.0048,0.0057,0.0076,0.0097,0.0123,0.0159,0.0181,0.0195,0.0187,0.0163,0.0162,0.0074,0.007,0.0063,0.0111,0.011,0.011,0.0109,0.0109,0.0078,0.0078,0.0112,0.0135,0.019,0.0244,0.0262,0.0292,0.0288,0.0292,0.0195,0.0191,0.0187,0.018,0.0176,0.025,0.025,0.025,0.025,0.0099,0.01,0.0144,0.0185,0.0243,0.0284,0.0354,0.0375,0.0343,0.0312,0.0309,0.0285,0.0278,0.0276,0.0268,0.0264,0.0361,0.0361,0.0361,0.0121,0.0132,0.0163,0.0194,0.0261,0.033,0.0385,0.0392,0.0353,0.0365,0.0319,0.0259,0.0214,0.0207,0.0193,0.0184,0.0174,0,0]}],[{"header":{"parameterUnit":"m.s-1","parameterCategory":2,"la1":30.2992,"la2":30.254,"lo1":-89.0895,"lo2":-89.0443,"dy":0.0025,"dx":0.0025,"nx":19,"ny":19,"refTime":"2026-04-05T21:00:00:Z","depth":"4","parameterNumber":2,"parameterNumberName":"U-component_of_CURRENTS"},"data":[0,0,0,0.0902,0.0904,0.0987,0.0987,0.1055,0.1056,0,0,0,0,0,0,0,0,0,0,0,0.0878,0.0879,0.0902,0.0904,0.0987,0.0987,0.1055,0.1056,0,0,0,0,0,0,0,0,0,0,0,0.0878,0.0878,0.0879,0.0905,0.0987,0.0987,0.1055,0.1002,0,0,0,0,0,0,0,0,0,0,0.0926,0.0913,0.0878,0.0879,0.0905,0.0987,0.0987,0.0999,0.1005,0.1007,0,0.1028,0,0.1042,0.1059,0.106,0,0,0,0.0903,0.0908,0.0927,0.088,0.0906,0.0987,0.0949,0.1003,0.1009,0.1014,0.1029,0.1032,0.1043,0.106,0.106,0.1131,0.1131,0,0,0.0898,0.0894,0.0923,0.0931,0.0938,0.0947,0.0952,0.1007,0.1019,0.103,0.1034,0.1044,0.106,0.1061,0.1131,0.1131,0,0,0,0.0886,0.0891,0.091,0.0928,0.0946,0.0949,0.0955,0.1016,0.1022,0.1035,0.1045,0.1061,0.1061,0.113,0.1131,0.1156,0,0,0,0.0883,0.0884,0.0908,0.0906,0.0945,0.0988,0.0963,0.1018,0.1025,0.1045,0.1061,0.1062,0.113,0.113,0.1154,0.1157,0,0,0,0.0872,0.0883,0.0895,0.0906,0.0941,0.0988,0.0997,0.102,0.1031,0.106,0.1062,0.1129,0.113,0.1153,0.1155,0.1174,0,0,0,0.0861,0.0884,0.0895,0.0927,0.094,0.0989,0.0997,0.104,0.1066,0.1061,0.113,0.1131,0.1153,0.1154,0.1173,0.1025,0,0,0,0.0878,0.0886,0.0903,0.0915,0.0957,0.0976,0.1029,0.1067,0.1078,0.1108,0.111,0.1155,0.1155,0.1174,0.1075,0,0,0,0,0.09,0.0914,0.0929,0.0961,0.0993,0.1033,0.107,0.109,0.1135,0.1098,0.1165,0.1164,0.1175,0.1086,0.1135,0.1135,0.1134,0.1134,0.1134,0.0908,0.0927,0.0959,0.0991,0.1025,0.1078,0.1112,0.1147,0.1155,0.1182,0.1192,0.1233,0.114,0.1205,0.1205,0.1205,0.1206,0.1206,0.1206,0.0924,0.0937,0.0976,0.1015,0.1058,0.1107,0.1163,0.1184,0.1232,0.1226,0.1236,0.1128,0.1208,0.1208,0.1208,0.1207,0.1207,0.1207,0.1207,0.0915,0.0922,0.0959,0.1013,0.107,0.1126,0.117,0.1216,0.1252,0.127,0.1177,0.1251,0.124,0.1282,0.1282,0.1282,0.1282,0.1282,0.1282,0.0882,0.0917,0.0951,0.1008,0.1045,0.11,0.1175,0.12,0.1245,0.1186,0.128,0.1258,0.1256,0.1244,0.1284,0.1283,0.1283,0.1283,0.1283,0.0859,0.0881,0.0919,0.0956,0.1021,0.1041,0.113,0.1129,0.1146,0.1124,0.114,0.1147,0.1122,0.1123,0.1106,0.1106,0.1104,0.1102,0,0.0835,0.085,0.0891,0.0924,0.0946,0.1001,0.0979,0.1015,0.1046,0.101,0.1165,0.1184,0.1187,0.1161,0.1159,0.1138,0,0,0,0.0821,0.0835,0.0848,0.0885,0.09,0.0906,0.0964,0.0935,0.104,0.1002,0.1058,0.1069,0.121,0.1289,0.1267,0.1264,0.1243,0,0]},{"header":{"parameterUnit":"m.s-1","parameterCategory":2,"la1":30.2992,"la2":30.254,"lo1":-89.0895,"lo2":-89.0443,"dy":0.0025,"dx":0.0025,"nx":19,"ny":19,"refTime":"2026-04-05T21:00:00:Z","depth":"4","parameterNumber":3,"parameterNumberName":"V-component_of_CURRENTS"},"data":[0,0,0,0.0222,0.0221,0.0189,0.0188,0.0161,0.016,0,0,0,0,0,0,0,0,0,0,0,0.0235,0.0235,0.0222,0.0221,0.0189,0.0188,0.0161,0.016,0,0,0,0,0,0,0,0,0,0,0,0.0235,0.0235,0.0235,0.0221,0.0189,0.0188,0.0161,0.0181,0,0,0,0,0,0,0,0,0,0,0.0211,0.0222,0.0235,0.0235,0.0221,0.0189,0.0188,0.0182,0.018,0.018,0,0.0177,0,0.0169,0.0159,0.0159,0,0,0,0.0219,0.0223,0.0215,0.0235,0.022,0.0189,0.0203,0.0181,0.0178,0.0177,0.0177,0.0175,0.0168,0.0159,0.0159,0.015,0.015,0,0,0.022,0.0228,0.0217,0.0214,0.0215,0.0204,0.0202,0.0179,0.0178,0.0176,0.0175,0.0168,0.0159,0.0159,0.015,0.015,0,0,0,0.0227,0.0229,0.0221,0.0215,0.0208,0.0203,0.02,0.0179,0.0177,0.0174,0.0167,0.0159,0.0158,0.015,0.015,0.0172,0,0,0,0.0228,0.0233,0.0222,0.0226,0.0209,0.0191,0.0201,0.0178,0.0175,0.0167,0.0159,0.0158,0.015,0.015,0.0171,0.019,0,0,0,0.0236,0.0234,0.0231,0.0226,0.0213,0.0191,0.0187,0.0177,0.0171,0.0159,0.0158,0.015,0.015,0.0171,0.0188,0.0203,0,0,0,0.0243,0.0238,0.0231,0.0225,0.0213,0.0202,0.0187,0.0173,0.0164,0.0159,0.015,0.015,0.017,0.0187,0.0202,0.0204,0,0,0,0.024,0.0237,0.0234,0.0227,0.0222,0.0206,0.0204,0.0183,0.0166,0.0157,0.0157,0.0171,0.0188,0.0203,0.0211,0,0,0,0,0.0235,0.0234,0.0231,0.0226,0.0217,0.0218,0.0196,0.0189,0.0175,0.0161,0.0168,0.0177,0.0186,0.0184,0.015,0.015,0.015,0.015,0.015,0.0244,0.0239,0.0239,0.0235,0.0232,0.0224,0.0222,0.0209,0.0189,0.0185,0.0192,0.0216,0.0213,0.0184,0.0184,0.0184,0.0184,0.0184,0.0184,0.0248,0.0251,0.0252,0.025,0.0254,0.0256,0.0248,0.0236,0.0233,0.021,0.0218,0.0203,0.0186,0.0186,0.0185,0.0185,0.0185,0.0185,0.0185,0.0259,0.026,0.0261,0.0269,0.0282,0.028,0.0303,0.0285,0.0259,0.0264,0.0257,0.0234,0.0236,0.0264,0.0264,0.0264,0.0264,0.0264,0.0264,0.027,0.0272,0.0282,0.0288,0.0304,0.0325,0.0332,0.0336,0.031,0.029,0.0272,0.0243,0.024,0.0241,0.0267,0.0266,0.0266,0.0266,0.0266,0.0276,0.0282,0.0298,0.0313,0.0345,0.0364,0.0375,0.037,0.0371,0.0356,0.0301,0.0299,0.0294,0.029,0.0292,0.0334,0.0334,0.0334,0,0.0285,0.0286,0.0311,0.0338,0.0371,0.0385,0.0402,0.0402,0.0365,0.0351,0.0365,0.0304,0.0301,0.0295,0.0292,0.0294,0,0,0,0.0291,0.0299,0.0315,0.0337,0.0374,0.0392,0.0404,0.0393,0.0368,0.0374,0.0338,0.0337,0.0322,0.0274,0.026,0.0257,0.0257,0,0]}]]